This demonstration page uses our WeatherBlox Daily Observations layout. Learn more.

Left ArrowRight Arrow

53.62937, 11.41316

Hourly Observations for April 26, 2021

Temp ( °F °C ) Dew Point ( °F °C ) Humidity (%) Winds ( mph kmh ) Pressure ( in mb ) Visibility ( mi km ) Precip ( " mm )
5:50 am 05:50 Mostly Clear 30 -1 27 -3 86 86 SW 2 4 30.21 1023 7 11 N/A
6:20 am 06:20 Mostly Sunny 30 -1 27 -3 86 86 VRB 1 2 30.21 1023 7 11 N/A
6:50 am 06:50 Mostly Sunny 32 0 27 -3 80 80 Calm 30.21 1023 7 11 N/A
7:20 am 07:20 Mostly Sunny 34 1 27 -3 75 75 Calm 30.21 1023 7 11 N/A
7:50 am 07:50 Mostly Sunny 36 2 30 -1 81 81 Calm 30.21 1023 7 11 N/A
8:20 am 08:20 Mostly Sunny 37 3 32 0 81 81 VRB 1 2 30.21 1023 7 11 N/A
8:50 am 08:50 Mostly Sunny 41 5 34 1 76 76 VRB 1 2 30.21 1023 7 11 N/A
9:20 am 09:20 Mostly Sunny 43 6 28 -2 57 57 S 3 6 30.21 1023 7 11 N/A
9:50 am 09:50 Mostly Sunny 45 7 27 -3 49 49 VRB 2 4 30.21 1023 7 11 N/A
10:20 am 10:20 Mostly Sunny 46 8 25 -4 43 43 VRB 2 4 30.21 1023 7 11 N/A
10:50 am 10:50 Mostly Sunny 46 8 23 -5 40 40 SE 3 6 30.21 1023 7 11 N/A
11:20 am 11:20 Mostly Sunny 48 9 27 -3 43 43 VRB 2 4 30.18 1022 7 11 N/A
11:50 am 11:50 Mostly Sunny 48 9 25 -4 40 40 N 3 6 30.18 1022 7 11 N/A
12:20 pm 12:20 Mostly Sunny 46 8 23 -5 40 40 NNW 5 7 30.18 1022 7 11 N/A
12:50 pm 12:50 Mostly Sunny 46 8 23 -5 40 40 ESE 5 7 30.18 1022 7 11 N/A
1:20 pm 13:20 Mostly Sunny 48 9 21 -6 34 34 ESE 6 9 30.15 1021 7 11 N/A
1:50 pm 13:50 Mostly Sunny 50 10 23 -5 35 35 VRB 5 7 30.15 1021 7 11 N/A
2:20 pm 14:20 Mostly Sunny 48 9 25 -4 40 40 NE 9 15 30.15 1021 7 11 N/A
2:50 pm 14:50 Mostly Sunny 50 10 25 -4 37 37 E 8 13 30.15 1021 7 11 N/A
3:20 pm 15:20 Mostly Sunny 48 9 23 -5 37 37 VRB 8 13 30.12 1020 7 11 N/A
3:50 pm 15:50 Mostly Sunny 48 9 23 -5 37 37 E 8 13 30.12 1020 7 11 N/A
4:20 pm 16:20 Mostly Sunny 48 9 19 -7 32 32 VRB 6 9 30.12 1020 7 11 N/A
4:50 pm 16:50 Mostly Sunny 48 9 23 -5 37 37 ENE 10 17 30.09 1019 7 11 N/A
5:20 pm 17:20 Mostly Sunny 48 9 23 -5 37 37 E 7 11 30.09 1019 7 11 N/A
5:50 pm 17:50 Mostly Sunny 48 9 23 -5 37 37 ENE 10 17 30.09 1019 7 11 N/A
6:20 pm 18:20 Mostly Sunny 48 9 25 -4 40 40 E 10 17 30.09 1019 7 11 N/A
6:50 pm 18:50 Mostly Sunny 48 9 23 -5 37 37 E 10 17 30.09 1019 7 11 N/A
7:20 pm 19:20 Mostly Sunny 46 8 25 -4 43 43 ENE 12 19 30.09 1019 7 11 N/A
7:50 pm 19:50 Mostly Sunny 45 7 25 -4 46 46 ENE 10 17 30.09 1019 7 11 N/A
8:20 pm 20:20 Mostly Sunny 43 6 27 -3 53 53 ENE 9 15 30.09 1019 7 11 N/A
8:50 pm 20:50 Mostly Clear 39 4 27 -3 61 61 ENE 9 15 30.09 1019 7 11 N/A
9:20 pm 21:20 Mostly Clear 37 3 27 -3 65 65 ENE 7 11 30.09 1019 7 11 N/A
9:50 pm 21:50 Mostly Clear 39 4 27 -3 61 61 E 6 9 30.09 1019 7 11 N/A

Powered by AerisWeather